[Iaude] MPEC L54: 2022 LQ1 [a=1.69,e=0.24,i=31.2,H=21.4]

mpec at marsden.cfa.harvard.edu mpec at marsden.cfa.harvard.edu
Tue Jun 7 01:47:23 EDT 2022


M.P.E.C. 2022-L54                                  Issued 2022 June 7, 05:46 UT

     The Minor Planet Electronic Circulars contain information on unusual
         minor planets and routine data on comets.  They are published
    on behalf of Division F of the International Astronomical Union by the
          Minor Planet Center, Smithsonian Astrophysical Observatory,
                          Cambridge, MA 02138, U.S.A.

             Prepared using the Tamkin Foundation Computer Network

                              MPC at CFA.HARVARD.EDU
            URL https://www.minorplanetcenter.net/    ISSN 1523-6714

                                    2022 LQ1                                    


Observations:
     K22L01Q* C2022 06 02.35864616 58 09.022+15 20 17.16         22.46wUEL054F52
     K22L01Q  C2022 06 02.37039416 58 07.489+15 19 58.50         21.86wUEL054F52
     K22L01Q  C2022 06 02.38204616 58 05.971+15 19 39.65         21.93wUEL054F52
     K22L01Q  C2022 06 02.39383316 58 04.426+15 19 20.76         22.21wUEL054F52
     K22L01Q  C2022 06 02.46439616 57 55.186+15 17 27.17         22.09GVEL054F52
     K22L01Q  C2022 06 02.46502616 57 55.110+15 17 25.87         22.12GVEL054F52
     K22L01Q KC2022 06 03.24485316 56 17.30 +14 55 53.9          22.0 VuEL054H21
     K22L01Q KC2022 06 03.24919916 56 16.73 +14 55 46.5          22.2 VuEL054H21
     K22L01Q KC2022 06 03.25368916 56 16.14 +14 55 38.6          21.9 VuEL054H21
     K22L01Q KC2022 06 04.19999816 54 15.62 +14 28 26.7          21.7 VuEL054H21
     K22L01Q KC2022 06 04.21086316 54 14.15 +14 28 08.1          22.0 VuEL054H21
     K22L01Q KC2022 06 04.21520816 54 13.58 +14 28 00.1          22.1 VuEL054H21
     K22L01Q 1C2022 06 04.96511 16 52 36.29 +14 05 28.6          21.8 VXEL054033
     K22L01Q 1C2022 06 04.96870 16 52 35.79 +14 05 22.3          21.8 VXEL054033
     K22L01Q 1C2022 06 04.97228 16 52 35.35 +14 05 15.5          21.5 VXEL054033
     K22L01Q |C2022 06 07.12950 16 47 50.13 +12 56 27.1          22.2 GVEL054807
     K22L01Q |C2022 06 07.13503 16 47 49.37 +12 56 15.8          22.2 GVEL054807
     K22L01Q |C2022 06 07.14057 16 47 48.59 +12 56 05.0          22.2 GVEL054807

Observer details:
033 Karl Schwarzschild Observatory, Tautenburg.  Observers S. Melnikov, C.
    Hoegner, U. Laux, F. Ludwig, B. Stecklum.  Measurer B. Stecklum.  1.34-m
    f/3 Schmidt + CCD.
807 Cerro Tololo Observatory, La Serena.  Observers T. Linder, R. Holmes, L.
    Horn.  1.00-m f/10.0 astrograph + CCD.
F52 Pan-STARRS 2, Haleakala.  Observers J. Bulger, T. Lowe, A. Schultz, I.
    Smith, K. Chambers, T. Dukes.  Measurers K. Chambers, S. Chastel, T. de
    Boer, J. Fairlamb, H. Gao, M. Huber, C.-C. Lin, E. Magnier, Y.
    Ramanjooloo, R. Wainscoat, R. Weryk.  1.8-m Ritchey-Chretien + CCD.
H21 Astronomical Research Observatory, Westfield.  Observer R. Holmes.
    Measurers T. Linder, R. Holmes, L. Horn.  1.3-m f/4.0 astrograph + CCD.

Orbital elements:
2022 LQ1                                                 Earth MOID = 0.3324 AU
Epoch 2022 Aug. 9.0 TT = JDT 2459800.5                  Veres                   
M 341.21854              (2000.0)            P               Q                  
n   0.44977010     Peri.  228.67595     +0.68752809     +0.51046339             
a   1.6871058      Node    94.05047     -0.40801174     +0.85989947             
e   0.2442518      Incl.   31.18175     -0.60069256     +0.00018120             
P   2.19           H   21.43          G   0.15           U   9                  
Residuals in seconds of arc
220602 F52  0.1+  0.0     220603 H21  0.0   0.1+    220604 033  0.1+  0.2-
220602 F52  0.0   0.1+    220603 H21  0.0   0.0     220604 033  0.1-  0.0
220602 F52  0.0   0.1-    220603 H21  0.1+  0.3-    220604 033  0.5+  0.2-
220602 F52  0.1-  0.1-    220604 H21  0.0   0.2-    220607 807  0.1-  0.0
220602 F52  0.0   0.1+    220604 H21  0.2-  0.4+    220607 807  0.1+  0.2-
220602 F52  0.1+  0.2-    220604 H21  0.0   0.0     220607 807  0.0   0.2+

Ephemeris:
2022 LQ1                 a,e,i = 1.69, 0.24, 31                  q = 1.2750
Date    TT    R. A. (2000) Decl.     Delta      r    Elong.  Phase     V
2022 05 08    17 33 24.2 +20 36 00   0.7478  1.5740   126.6    31.0    23.1
...
2022 05 23    17 17 00.9 +18 48 16   0.6230  1.5242   136.2    27.4    22.5
...
2022 05 31    17 02 54.8 +16 19 46   0.5676  1.4981   141.0    25.2    22.2
...
2022 06 06    16 50 20.5 +13 33 20   0.5330  1.4788   143.8    23.9    22.0
2022 06 07    16 48 07.3 +13 00 38   0.5280  1.4757   144.2    23.7    22.0
2022 06 08    16 45 52.4 +12 26 29   0.5231  1.4725   144.5    23.6    22.0
...
2022 06 14    16 31 59.6 +08 31 51   0.4984  1.4537   145.4    23.4    21.8
...
2022 06 22    16 13 24.1 +02 07 30   0.4789  1.4294   143.4    25.1    21.8
...
2022 07 07    15 44 01.7 -11 53 08   0.4856  1.3867   131.4    33.3    22.0

M. P. C. Staff               (C) Copyright 2022 MPC           M.P.E.C. 2022-L54




More information about the Iaude mailing list